STARLINK BJ (44291 NORAD) Tracking and Keplerian Element Data

This shows tracking and keplerian element data for the satellite.

Feedback or suggestion? Click here.




ElementValue
Catalog44291
NameSTARLINK BJ
Epoch Orbit337
Epoch Day158.46235395
Epoch Year2019
RAAN108.2329
Inclination52.9857
Eccentricity0.0002919
Argument of Perigee343.8013
Mean Anonmoly16.2885
Mean Motion15.14732431
Decay Rate-0.01957441
L11 44291U 19029BJ 19158.46235395 -.01957441 00000-0 -11550+0 0 9996
L22 44291 52.9857 108.2329 0002919 343.8013 16.2885 15.14732431 3370

Live tracking and technical data element details for STARLINK BJ (NORAD 44291). STARLINK BJ can be tracked NOW for your location showing map with azimuth and elevation plus other details from your city location.

Track the satellite on the map from your city or location and see movement details for azimuth, elevation, latitude, longitude, range, height, and movement on the map or in text.







IsCatalogInMostPopularTable: catalog: 44291, numindb: 88
Update: records affected: 1



GetName: 44291 STARLINK BJ

Hit Count: updated at: Tue, 16 Jul 2019 15:32:43 GMT